Year,Month,Day,Hour,Minute,Value (Times are PST for temperature in C)
2015,04,03,00,00,9.50
2015,04,03,00,01,9.50
2015,04,03,00,02,9.50
2015,04,03,00,03,9.60
2015,04,03,00,04,9.60
2015,04,03,00,05,9.60
2015,04,03,00,06,9.60
2015,04,03,00,07,9.50
2015,04,03,00,08,9.50
2015,04,03,00,09,9.40
2015,04,03,00,10,9.30
2015,04,03,00,11,9.10
2015,04,03,00,12,8.90
2015,04,03,00,13,8.70
2015,04,03,00,14,8.60
2015,04,03,00,15,8.40
2015,04,03,00,16,8.30
2015,04,03,00,17,8.30
2015,04,03,00,18,8.20
2015,04,03,00,19,8.20
2015,04,03,00,20,8.20
2015,04,03,00,21,8.20
2015,04,03,00,22,8.20
2015,04,03,00,23,8.20
2015,04,03,00,24,8.20
2015,04,03,00,25,8.20
2015,04,03,00,26,8.20
2015,04,03,00,27,8.20
2015,04,03,00,28,8.20
2015,04,03,00,29,8.20
2015,04,03,00,30,8.20
2015,04,03,00,31,8.20
2015,04,03,00,32,8.20
2015,04,03,00,33,8.20
2015,04,03,00,34,8.20
2015,04,03,00,35,8.20
2015,04,03,00,36,8.30
2015,04,03,00,37,8.30
2015,04,03,00,38,8.30
2015,04,03,00,39,8.30
2015,04,03,00,40,8.30
2015,04,03,00,41,8.40
2015,04,03,00,42,8.40
2015,04,03,00,43,8.40
2015,04,03,00,44,8.50
2015,04,03,00,45,8.50
2015,04,03,00,46,8.50
2015,04,03,00,47,8.60
2015,04,03,00,48,8.70
2015,04,03,00,49,8.70
2015,04,03,00,50,8.80
2015,04,03,00,51,8.80
2015,04,03,00,52,8.90
2015,04,03,00,53,8.90
2015,04,03,00,54,8.90
2015,04,03,00,55,9.00
2015,04,03,00,56,9.00
2015,04,03,00,57,9.00
2015,04,03,00,58,9.00
2015,04,03,00,59,9.00
2015,04,03,01,00,9.00
2015,04,03,01,01,9.00
2015,04,03,01,02,9.00
2015,04,03,01,03,8.90
2015,04,03,01,04,8.90
2015,04,03,01,05,8.80
2015,04,03,01,06,8.80
2015,04,03,01,07,8.70
2015,04,03,01,08,8.60
2015,04,03,01,09,8.60
2015,04,03,01,10,8.60
2015,04,03,01,11,8.60
2015,04,03,01,12,8.50
2015,04,03,01,13,8.50
2015,04,03,01,14,8.40
2015,04,03,01,15,8.40
2015,04,03,01,16,8.40
2015,04,03,01,17,8.30
2015,04,03,01,18,8.30
2015,04,03,01,19,8.20
2015,04,03,01,20,8.20
2015,04,03,01,21,8.20
2015,04,03,01,22,8.10
2015,04,03,01,23,8.10
2015,04,03,01,24,8.10
2015,04,03,01,25,8.10
2015,04,03,01,26,8.10
2015,04,03,01,27,8.10
2015,04,03,01,28,8.10
2015,04,03,01,29,8.10
2015,04,03,01,30,8.10
2015,04,03,01,31,8.10
2015,04,03,01,32,8.20
2015,04,03,01,33,8.20
2015,04,03,01,34,8.20
2015,04,03,01,35,8.20
2015,04,03,01,36,8.20
2015,04,03,01,37,8.20
2015,04,03,01,38,8.20
2015,04,03,01,39,8.20
2015,04,03,01,40,8.20
2015,04,03,01,41,8.20
2015,04,03,01,42,8.10
2015,04,03,01,43,8.10
2015,04,03,01,44,8.10
2015,04,03,01,45,8.10
2015,04,03,01,46,8.10
2015,04,03,01,47,8.00
2015,04,03,01,48,8.00
2015,04,03,01,49,8.00
2015,04,03,01,50,8.00
2015,04,03,01,51,8.00
2015,04,03,01,52,8.00
2015,04,03,01,53,7.90
2015,04,03,01,54,7.90
2015,04,03,01,55,7.90
2015,04,03,01,56,7.90
2015,04,03,01,57,7.90
2015,04,03,01,58,7.90
2015,04,03,01,59,7.90
2015,04,03,02,00,7.90
2015,04,03,02,01,7.90
2015,04,03,02,02,7.90
2015,04,03,02,03,7.90
2015,04,03,02,04,7.90
2015,04,03,02,05,7.90
2015,04,03,02,06,7.90
2015,04,03,02,07,7.90
2015,04,03,02,08,7.90
2015,04,03,02,09,7.80
2015,04,03,02,10,7.80
2015,04,03,02,11,7.80
2015,04,03,02,12,7.70
2015,04,03,02,13,7.70
2015,04,03,02,14,7.70
2015,04,03,02,15,7.60
2015,04,03,02,16,7.60
2015,04,03,02,17,7.60
2015,04,03,02,18,7.60
2015,04,03,02,19,7.60
2015,04,03,02,20,7.60
2015,04,03,02,21,7.60
2015,04,03,02,22,7.60
2015,04,03,02,23,7.50
2015,04,03,02,24,7.50
2015,04,03,02,25,7.50
2015,04,03,02,26,7.50
2015,04,03,02,27,7.60
2015,04,03,02,28,7.50
2015,04,03,02,29,7.60
2015,04,03,02,30,7.50
2015,04,03,02,31,7.50
2015,04,03,02,32,7.50
2015,04,03,02,33,7.50
2015,04,03,02,34,7.50
2015,04,03,02,35,7.50
2015,04,03,02,36,7.50
2015,04,03,02,37,7.50
2015,04,03,02,38,7.50
2015,04,03,02,39,7.50
2015,04,03,02,40,7.50
2015,04,03,02,41,7.40
2015,04,03,02,42,7.40
2015,04,03,02,43,7.40
2015,04,03,02,44,7.40
2015,04,03,02,45,7.40
2015,04,03,02,46,7.40
2015,04,03,02,47,7.40
2015,04,03,02,48,7.40
2015,04,03,02,49,7.40
2015,04,03,02,50,7.40
2015,04,03,02,51,7.50
2015,04,03,02,52,7.50
2015,04,03,02,53,7.50
2015,04,03,02,54,7.50
2015,04,03,02,55,7.50
2015,04,03,02,56,7.50
2015,04,03,02,57,7.50
2015,04,03,02,58,7.50
2015,04,03,02,59,7.50
2015,04,03,03,00,7.50
2015,04,03,03,01,7.60
2015,04,03,03,02,7.60
2015,04,03,03,03,7.60
2015,04,03,03,04,7.70
2015,04,03,03,05,7.70
2015,04,03,03,06,7.70
2015,04,03,03,07,7.70
2015,04,03,03,08,7.70
2015,04,03,03,09,7.60
2015,04,03,03,10,7.60
2015,04,03,03,11,7.60
2015,04,03,03,12,7.60
2015,04,03,03,13,7.60
2015,04,03,03,14,7.70
2015,04,03,03,15,7.70
2015,04,03,03,16,7.70
2015,04,03,03,17,7.70
2015,04,03,03,18,7.70
2015,04,03,03,19,7.70
2015,04,03,03,20,7.60
2015,04,03,03,21,7.60
2015,04,03,03,22,7.60
2015,04,03,03,23,7.60
2015,04,03,03,24,7.60
2015,04,03,03,25,7.60
2015,04,03,03,26,7.60
2015,04,03,03,27,7.60
2015,04,03,03,28,7.60
2015,04,03,03,29,7.60
2015,04,03,03,30,7.60
2015,04,03,03,31,7.60
2015,04,03,03,32,7.60
2015,04,03,03,33,7.60
2015,04,03,03,34,7.60
2015,04,03,03,35,7.60
2015,04,03,03,36,7.60
2015,04,03,03,37,7.60
2015,04,03,03,38,7.60
2015,04,03,03,39,7.60
2015,04,03,03,40,7.60
2015,04,03,03,41,7.60
2015,04,03,03,42,7.60
2015,04,03,03,43,7.60
2015,04,03,03,44,7.60
2015,04,03,03,45,7.60
2015,04,03,03,46,7.60
2015,04,03,03,47,7.60
2015,04,03,03,48,7.60
2015,04,03,03,49,7.60
2015,04,03,03,50,7.60
2015,04,03,03,51,7.60
2015,04,03,03,52,7.60
2015,04,03,03,53,7.60
2015,04,03,03,54,7.60
2015,04,03,03,55,7.60
2015,04,03,03,56,7.50
2015,04,03,03,57,7.50
2015,04,03,03,58,7.50
2015,04,03,03,59,7.50
2015,04,03,04,00,7.50
2015,04,03,04,01,7.50
2015,04,03,04,02,7.50
2015,04,03,04,03,7.50
2015,04,03,04,04,7.50
2015,04,03,04,05,7.50
2015,04,03,04,06,7.50
2015,04,03,04,07,7.50
2015,04,03,04,08,7.50
2015,04,03,04,09,7.50
2015,04,03,04,10,7.50
2015,04,03,04,11,7.50
2015,04,03,04,12,7.50
2015,04,03,04,13,7.50
2015,04,03,04,14,7.50
2015,04,03,04,15,7.50
2015,04,03,04,16,7.50
2015,04,03,04,17,7.50
2015,04,03,04,18,7.50
2015,04,03,04,19,7.50
2015,04,03,04,20,7.50
2015,04,03,04,21,7.50
2015,04,03,04,22,7.50
2015,04,03,04,23,7.50
2015,04,03,04,24,7.50
2015,04,03,04,25,7.50
2015,04,03,04,26,7.50
2015,04,03,04,27,7.50
2015,04,03,04,28,7.50
2015,04,03,04,29,7.50
2015,04,03,04,30,7.60
2015,04,03,04,31,7.60
2015,04,03,04,32,7.60
2015,04,03,04,33,7.60
2015,04,03,04,34,7.60
2015,04,03,04,35,7.60
2015,04,03,04,36,7.60
2015,04,03,04,37,7.60
2015,04,03,04,38,7.60
2015,04,03,04,39,7.60
2015,04,03,04,40,7.60
2015,04,03,04,41,7.60
2015,04,03,04,42,7.50
2015,04,03,04,43,7.50
2015,04,03,04,44,7.50
2015,04,03,04,45,7.50
2015,04,03,04,46,7.50
2015,04,03,04,47,7.50
2015,04,03,04,48,7.50
2015,04,03,04,49,7.50
2015,04,03,04,50,7.50
2015,04,03,04,51,7.50
2015,04,03,04,52,7.50
2015,04,03,04,53,7.50
2015,04,03,04,54,7.50
2015,04,03,04,55,7.50
2015,04,03,04,56,7.50
2015,04,03,04,57,7.40
2015,04,03,04,58,7.40
2015,04,03,04,59,7.40
2015,04,03,05,00,7.40
2015,04,03,05,01,7.40
2015,04,03,05,02,7.40
2015,04,03,05,03,7.40
2015,04,03,05,04,7.40
2015,04,03,05,05,7.40
2015,04,03,05,06,7.40
2015,04,03,05,07,7.40
2015,04,03,05,08,7.40
2015,04,03,05,09,7.40
2015,04,03,05,10,7.40
2015,04,03,05,11,7.40
2015,04,03,05,12,7.40
2015,04,03,05,13,7.40
2015,04,03,05,14,7.40
2015,04,03,05,15,7.40
2015,04,03,05,16,7.40
2015,04,03,05,17,7.30
2015,04,03,05,18,7.30
2015,04,03,05,19,7.30
2015,04,03,05,20,7.40
2015,04,03,05,21,7.40
2015,04,03,05,22,7.40
2015,04,03,05,23,7.40
2015,04,03,05,24,7.20
2015,04,03,05,25,7.00
2015,04,03,05,26,6.90
2015,04,03,05,27,6.70
2015,04,03,05,28,6.60
2015,04,03,05,29,6.50
2015,04,03,05,30,6.40
2015,04,03,05,31,6.40
2015,04,03,05,32,6.40
2015,04,03,05,33,6.50
2015,04,03,05,34,6.50
2015,04,03,05,35,6.60
2015,04,03,05,36,6.60
2015,04,03,05,37,6.60
2015,04,03,05,38,6.60
2015,04,03,05,39,6.60
2015,04,03,05,40,6.60
2015,04,03,05,41,6.60
2015,04,03,05,42,6.60
2015,04,03,05,43,6.60
2015,04,03,05,44,6.60
2015,04,03,05,45,6.60
2015,04,03,05,46,6.60
2015,04,03,05,47,6.60
2015,04,03,05,48,6.60
2015,04,03,05,49,6.60
2015,04,03,05,50,6.70
2015,04,03,05,51,6.70
2015,04,03,05,52,6.70
2015,04,03,05,53,6.70
2015,04,03,05,54,6.70
2015,04,03,05,55,6.70
2015,04,03,05,56,6.70
2015,04,03,05,57,6.80
2015,04,03,05,58,6.80
2015,04,03,05,59,6.80
2015,04,03,06,00,6.90
2015,04,03,06,01,6.90
2015,04,03,06,02,6.90
2015,04,03,06,03,6.90
2015,04,03,06,04,6.90
2015,04,03,06,05,6.80
2015,04,03,06,06,6.80
2015,04,03,06,07,6.80
2015,04,03,06,08,6.80
2015,04,03,06,09,6.80
2015,04,03,06,10,6.70
2015,04,03,06,11,6.70
2015,04,03,06,12,6.70
2015,04,03,06,13,6.60
2015,04,03,06,14,6.60
2015,04,03,06,15,6.60
2015,04,03,06,16,6.50
2015,04,03,06,17,6.50
2015,04,03,06,18,6.50
2015,04,03,06,19,6.50
2015,04,03,06,20,6.40
2015,04,03,06,21,6.40
2015,04,03,06,22,6.40
2015,04,03,06,23,6.40
2015,04,03,06,24,6.30
2015,04,03,06,25,6.30
2015,04,03,06,26,6.30
2015,04,03,06,27,6.30
2015,04,03,06,28,6.30
2015,04,03,06,29,6.30
2015,04,03,06,30,6.30
2015,04,03,06,31,6.30
2015,04,03,06,32,6.30
2015,04,03,06,33,6.30
2015,04,03,06,34,6.30
2015,04,03,06,35,6.30
2015,04,03,06,36,6.30
2015,04,03,06,37,6.30
2015,04,03,06,38,6.30
2015,04,03,06,39,6.30
2015,04,03,06,40,6.30
2015,04,03,06,41,6.30
2015,04,03,06,42,6.30
2015,04,03,06,43,6.20
2015,04,03,06,44,6.20
2015,04,03,06,45,6.20
2015,04,03,06,46,6.20
2015,04,03,06,47,6.20
2015,04,03,06,48,6.10
2015,04,03,06,49,6.10
2015,04,03,06,50,6.10
2015,04,03,06,51,6.10
2015,04,03,06,52,6.10
2015,04,03,06,53,6.10
2015,04,03,06,54,6.10
2015,04,03,06,55,6.10
2015,04,03,06,56,6.10
2015,04,03,06,57,6.10
2015,04,03,06,58,6.10
2015,04,03,06,59,6.10
2015,04,03,07,00,6.10
2015,04,03,07,01,6.10
2015,04,03,07,02,6.00
2015,04,03,07,03,6.00
2015,04,03,07,04,6.00
2015,04,03,07,05,5.90
2015,04,03,07,06,5.90
2015,04,03,07,07,5.90
2015,04,03,07,08,5.90
2015,04,03,07,09,5.90
2015,04,03,07,10,5.90
2015,04,03,07,11,5.90
2015,04,03,07,12,5.90
2015,04,03,07,13,5.80
2015,04,03,07,14,5.80
2015,04,03,07,15,5.80
2015,04,03,07,16,5.80
2015,04,03,07,17,5.80
2015,04,03,07,18,5.80
2015,04,03,07,19,5.70
2015,04,03,07,20,5.70
2015,04,03,07,21,5.70
2015,04,03,07,22,5.60
2015,04,03,07,23,5.60
2015,04,03,07,24,5.50
2015,04,03,07,25,5.50
2015,04,03,07,26,5.40
2015,04,03,07,27,5.40
2015,04,03,07,28,5.40
2015,04,03,07,29,5.30
2015,04,03,07,30,5.30
2015,04,03,07,31,5.30
2015,04,03,07,32,5.30
2015,04,03,07,33,5.30
2015,04,03,07,34,5.30
2015,04,03,07,35,5.30
2015,04,03,07,36,5.30
2015,04,03,07,37,5.30
2015,04,03,07,38,5.30
2015,04,03,07,39,5.30
2015,04,03,07,40,5.30
2015,04,03,07,41,5.30
2015,04,03,07,42,5.30
2015,04,03,07,43,5.30
2015,04,03,07,44,5.30
2015,04,03,07,45,5.30
2015,04,03,07,46,5.30
2015,04,03,07,47,5.30
2015,04,03,07,48,5.30
2015,04,03,07,49,5.30
2015,04,03,07,50,5.20
2015,04,03,07,51,5.20
2015,04,03,07,52,5.20
2015,04,03,07,53,5.20
2015,04,03,07,54,5.20
2015,04,03,07,55,5.20
2015,04,03,07,56,5.20
2015,04,03,07,57,5.20
2015,04,03,07,58,5.20
2015,04,03,07,59,5.20
2015,04,03,08,00,5.20
2015,04,03,08,01,5.20
2015,04,03,08,02,5.20
2015,04,03,08,03,5.20
2015,04,03,08,04,5.20
2015,04,03,08,05,5.20
2015,04,03,08,06,5.20
2015,04,03,08,07,5.20
2015,04,03,08,08,5.10
2015,04,03,08,09,5.10
2015,04,03,08,10,5.10
2015,04,03,08,11,5.00
2015,04,03,08,12,5.00
2015,04,03,08,13,5.00
2015,04,03,08,14,5.00
2015,04,03,08,15,5.00
2015,04,03,08,16,5.00
2015,04,03,08,17,4.90
2015,04,03,08,18,4.90
2015,04,03,08,19,4.90
2015,04,03,08,20,4.90
2015,04,03,08,21,4.90
2015,04,03,08,22,4.90
2015,04,03,08,23,4.80
2015,04,03,08,24,4.80
2015,04,03,08,25,4.80
2015,04,03,08,26,4.80
2015,04,03,08,27,4.80
2015,04,03,08,28,4.80
2015,04,03,08,29,4.80
2015,04,03,08,30,4.70
2015,04,03,08,31,4.70
2015,04,03,08,32,4.70
2015,04,03,08,33,4.70
2015,04,03,08,34,4.70
2015,04,03,08,35,4.70
2015,04,03,08,36,4.70
2015,04,03,08,37,4.70
2015,04,03,08,38,4.70
2015,04,03,08,39,4.70
2015,04,03,08,40,4.70
2015,04,03,08,41,4.70
2015,04,03,08,42,4.60
2015,04,03,08,43,4.70
2015,04,03,08,44,4.60
2015,04,03,08,45,4.70
2015,04,03,08,46,4.70
2015,04,03,08,47,4.70
2015,04,03,08,48,4.70
2015,04,03,08,49,4.70
2015,04,03,08,50,4.70
2015,04,03,08,51,4.70
2015,04,03,08,52,4.70
2015,04,03,08,53,4.70
2015,04,03,08,54,4.70
2015,04,03,08,55,4.70
2015,04,03,08,56,4.70
2015,04,03,08,57,4.60
2015,04,03,08,58,4.60
2015,04,03,08,59,4.60
2015,04,03,09,00,4.60
2015,04,03,09,01,4.60
2015,04,03,09,02,4.70
2015,04,03,09,03,4.70
2015,04,03,09,04,4.70
2015,04,03,09,05,4.70
2015,04,03,09,06,4.70
2015,04,03,09,07,4.70
2015,04,03,09,08,4.70
2015,04,03,09,09,4.70
2015,04,03,09,10,4.60
2015,04,03,09,11,4.60
2015,04,03,09,12,4.60
2015,04,03,09,13,4.60
2015,04,03,09,14,4.60
2015,04,03,09,15,4.60
2015,04,03,09,16,4.60
2015,04,03,09,17,4.50
2015,04,03,09,18,4.50
2015,04,03,09,19,4.50
2015,04,03,09,20,4.40
2015,04,03,09,21,4.40
2015,04,03,09,22,4.40
2015,04,03,09,23,4.40
2015,04,03,09,24,4.40
2015,04,03,09,25,4.30
2015,04,03,09,26,4.30
2015,04,03,09,27,4.30
2015,04,03,09,28,4.30
2015,04,03,09,29,4.30
2015,04,03,09,30,4.30
2015,04,03,09,31,4.20
2015,04,03,09,32,4.20
2015,04,03,09,33,4.20
2015,04,03,09,34,4.20
2015,04,03,09,35,4.20
2015,04,03,09,36,4.20
2015,04,03,09,37,4.20
2015,04,03,09,38,4.20
2015,04,03,09,39,4.20
2015,04,03,09,40,4.20
2015,04,03,09,41,4.20
2015,04,03,09,42,4.20
2015,04,03,09,43,4.30
2015,04,03,09,44,4.30
2015,04,03,09,45,4.30
2015,04,03,09,46,4.30
2015,04,03,09,47,4.30
2015,04,03,09,48,4.30
2015,04,03,09,49,4.30
2015,04,03,09,50,4.30
2015,04,03,09,51,4.30
2015,04,03,09,52,4.30
2015,04,03,09,53,4.30
2015,04,03,09,54,4.30
2015,04,03,09,55,4.30
2015,04,03,09,56,4.30
2015,04,03,09,57,4.30
2015,04,03,09,58,4.30
2015,04,03,09,59,4.30
2015,04,03,10,00,4.30
2015,04,03,10,01,4.30
2015,04,03,10,02,4.30
2015,04,03,10,03,4.30
2015,04,03,10,04,4.30
2015,04,03,10,05,4.40
2015,04,03,10,06,4.30
2015,04,03,10,07,4.30
2015,04,03,10,08,4.30
2015,04,03,10,09,4.30
2015,04,03,10,10,4.30
2015,04,03,10,11,4.30
2015,04,03,10,12,4.30
2015,04,03,10,13,4.30
2015,04,03,10,14,4.40
2015,04,03,10,15,4.40
2015,04,03,10,16,4.40
2015,04,03,10,17,4.40
2015,04,03,10,18,4.40
2015,04,03,10,19,4.40
2015,04,03,10,20,4.40
2015,04,03,10,21,4.40
2015,04,03,10,22,4.40
2015,04,03,10,23,4.40
2015,04,03,10,24,4.40
2015,04,03,10,25,4.40
2015,04,03,10,26,4.40
2015,04,03,10,27,4.40
2015,04,03,10,28,4.40
2015,04,03,10,29,4.40
2015,04,03,10,30,4.40
2015,04,03,10,31,4.40
2015,04,03,10,32,4.40
2015,04,03,10,33,4.40
2015,04,03,10,34,4.40
2015,04,03,10,35,4.40
2015,04,03,10,36,4.40
2015,04,03,10,37,4.40
2015,04,03,10,38,4.40
2015,04,03,10,39,4.40
2015,04,03,10,40,4.40
2015,04,03,10,41,4.50
2015,04,03,10,42,4.50
2015,04,03,10,43,4.50
2015,04,03,10,44,4.50
2015,04,03,10,45,4.50
2015,04,03,10,46,4.60
2015,04,03,10,47,4.60
2015,04,03,10,48,4.60
2015,04,03,10,49,4.60
2015,04,03,10,50,4.60
2015,04,03,10,51,4.60
2015,04,03,10,52,4.70
2015,04,03,10,53,4.70
2015,04,03,10,54,4.70
2015,04,03,10,55,4.70
2015,04,03,10,56,4.70
2015,04,03,10,57,4.70
2015,04,03,10,58,4.70
2015,04,03,10,59,4.70
2015,04,03,11,00,4.80
2015,04,03,11,01,4.80
2015,04,03,11,02,4.80
2015,04,03,11,03,4.90
2015,04,03,11,04,4.90
2015,04,03,11,05,5.00
2015,04,03,11,06,5.00
2015,04,03,11,07,5.10
2015,04,03,11,08,5.10
2015,04,03,11,09,5.10
2015,04,03,11,10,5.20
2015,04,03,11,11,5.20
2015,04,03,11,12,5.20
2015,04,03,11,13,5.20
2015,04,03,11,14,5.10
2015,04,03,11,15,5.10
2015,04,03,11,16,5.10
2015,04,03,11,17,5.10
2015,04,03,11,18,5.10
2015,04,03,11,19,5.10
2015,04,03,11,20,5.10
2015,04,03,11,21,5.10
2015,04,03,11,22,5.10
2015,04,03,11,23,5.10
2015,04,03,11,24,5.10
2015,04,03,11,25,5.10
2015,04,03,11,26,5.00
2015,04,03,11,27,5.00
2015,04,03,11,28,4.90
2015,04,03,11,29,4.90
2015,04,03,11,30,4.90
2015,04,03,11,31,4.90
2015,04,03,11,32,4.90
2015,04,03,11,33,4.90
2015,04,03,11,34,4.90
2015,04,03,11,35,4.90
2015,04,03,11,36,5.00
2015,04,03,11,37,5.10
2015,04,03,11,38,5.10
2015,04,03,11,39,5.10
2015,04,03,11,40,5.10
2015,04,03,11,41,5.10
2015,04,03,11,42,5.10
2015,04,03,11,43,5.10
2015,04,03,11,44,5.10
2015,04,03,11,45,5.10
2015,04,03,11,46,5.10
2015,04,03,11,47,5.10
2015,04,03,11,48,5.20
2015,04,03,11,49,5.20
2015,04,03,11,50,5.20
2015,04,03,11,51,5.30
2015,04,03,11,52,5.30
2015,04,03,11,53,5.30
2015,04,03,11,54,5.30
2015,04,03,11,55,5.30
2015,04,03,11,56,5.40
2015,04,03,11,57,5.40
2015,04,03,11,58,5.40
2015,04,03,11,59,5.40
2015,04,03,12,00,5.40
2015,04,03,12,01,5.50
2015,04,03,12,02,5.60
2015,04,03,12,03,5.60
2015,04,03,12,04,5.60
2015,04,03,12,05,5.60
2015,04,03,12,06,5.70
2015,04,03,12,07,5.70
2015,04,03,12,08,5.80
2015,04,03,12,09,5.80
2015,04,03,12,10,5.80
2015,04,03,12,11,5.80
2015,04,03,12,12,5.90
2015,04,03,12,13,5.90
2015,04,03,12,14,5.90
2015,04,03,12,15,5.90
2015,04,03,12,16,5.90
2015,04,03,12,17,6.00
2015,04,03,12,18,6.00
2015,04,03,12,19,5.90
2015,04,03,12,20,5.90
2015,04,03,12,21,5.90
2015,04,03,12,22,5.90
2015,04,03,12,23,5.90
2015,04,03,12,24,6.00
2015,04,03,12,25,6.00
2015,04,03,12,26,5.90
2015,04,03,12,27,6.00
2015,04,03,12,28,6.00
2015,04,03,12,29,6.00
2015,04,03,12,30,6.10
2015,04,03,12,31,6.10
2015,04,03,12,32,6.10
2015,04,03,12,33,6.10
2015,04,03,12,34,6.20
2015,04,03,12,35,6.20
2015,04,03,12,36,6.20
2015,04,03,12,37,6.30
2015,04,03,12,38,6.30
2015,04,03,12,39,6.40
2015,04,03,12,40,6.30
2015,04,03,12,41,6.30
2015,04,03,12,42,6.30
2015,04,03,12,43,6.30
2015,04,03,12,44,6.30
2015,04,03,12,45,6.30
2015,04,03,12,46,6.20
2015,04,03,12,47,6.20
2015,04,03,12,48,6.20
2015,04,03,12,49,6.20
2015,04,03,12,50,6.20
2015,04,03,12,51,6.20
2015,04,03,12,52,6.20
2015,04,03,12,53,6.20
2015,04,03,12,54,6.20
2015,04,03,12,55,6.20
2015,04,03,12,56,6.10
2015,04,03,12,57,6.10
2015,04,03,12,58,6.10
2015,04,03,12,59,6.10
2015,04,03,13,00,6.10
2015,04,03,13,01,6.10
2015,04,03,13,02,6.10
2015,04,03,13,03,6.10
2015,04,03,13,04,6.10
2015,04,03,13,05,6.10
2015,04,03,13,06,6.20
2015,04,03,13,07,6.20
2015,04,03,13,08,6.20
2015,04,03,13,09,6.20
2015,04,03,13,10,6.20
2015,04,03,13,11,6.20
2015,04,03,13,12,6.30
2015,04,03,13,13,6.30
2015,04,03,13,14,6.30
2015,04,03,13,15,6.30
2015,04,03,13,16,6.30
2015,04,03,13,17,6.30
2015,04,03,13,18,6.30
2015,04,03,13,19,6.30
2015,04,03,13,20,6.30
2015,04,03,13,21,6.40
2015,04,03,13,22,6.40
2015,04,03,13,23,6.50
2015,04,03,13,24,6.50
2015,04,03,13,25,6.60
2015,04,03,13,26,6.70
2015,04,03,13,27,6.80
2015,04,03,13,28,6.80
2015,04,03,13,29,6.90
2015,04,03,13,30,6.90
2015,04,03,13,31,6.90
2015,04,03,13,32,7.00
2015,04,03,13,33,7.10
2015,04,03,13,34,7.00
2015,04,03,13,35,7.00
2015,04,03,13,36,7.00
2015,04,03,13,37,7.00
2015,04,03,13,38,7.00
2015,04,03,13,39,7.00
2015,04,03,13,40,7.00
2015,04,03,13,41,7.00
2015,04,03,13,42,7.00
2015,04,03,13,43,7.10
2015,04,03,13,44,7.10
2015,04,03,13,45,7.10
2015,04,03,13,46,7.20
2015,04,03,13,47,7.20
2015,04,03,13,48,7.30
2015,04,03,13,49,7.30
2015,04,03,13,50,7.40
2015,04,03,13,51,7.50
2015,04,03,13,52,7.60
2015,04,03,13,53,7.60
2015,04,03,13,54,7.70
2015,04,03,13,55,7.70
2015,04,03,13,56,7.80
2015,04,03,13,57,7.90
2015,04,03,13,58,8.00
2015,04,03,13,59,8.00
2015,04,03,14,00,8.10
2015,04,03,14,01,8.10
2015,04,03,14,02,8.20
2015,04,03,14,03,8.20
2015,04,03,14,04,8.30
2015,04,03,14,05,8.40
2015,04,03,14,06,8.40
2015,04,03,14,07,8.50
2015,04,03,14,08,8.60
2015,04,03,14,09,8.70
2015,04,03,14,10,8.70
2015,04,03,14,11,8.80
2015,04,03,14,12,8.80
2015,04,03,14,13,8.80
2015,04,03,14,14,8.90
2015,04,03,14,15,9.00
2015,04,03,14,16,9.00
2015,04,03,14,17,9.10
2015,04,03,14,18,9.10
2015,04,03,14,19,9.20
2015,04,03,14,20,9.20
2015,04,03,14,21,9.20
2015,04,03,14,22,9.20
2015,04,03,14,23,9.20
2015,04,03,14,24,9.20
2015,04,03,14,25,9.10
2015,04,03,14,26,9.10
2015,04,03,14,27,9.10
2015,04,03,14,28,9.10
2015,04,03,14,29,9.10
2015,04,03,14,30,9.10
2015,04,03,14,31,9.10
2015,04,03,14,32,9.10
2015,04,03,14,33,9.20
2015,04,03,14,34,9.20
2015,04,03,14,35,9.20
2015,04,03,14,36,9.20
2015,04,03,14,37,9.20
2015,04,03,14,38,9.20
2015,04,03,14,39,9.20
2015,04,03,14,40,9.10
2015,04,03,14,41,9.10
2015,04,03,14,42,9.10
2015,04,03,14,43,9.10
2015,04,03,14,44,9.10
2015,04,03,14,45,9.10
2015,04,03,14,46,9.10
2015,04,03,14,47,9.10
2015,04,03,14,48,9.10
2015,04,03,14,49,9.10
2015,04,03,14,50,9.10
2015,04,03,14,51,9.10
2015,04,03,14,52,9.10
2015,04,03,14,53,9.10
2015,04,03,14,54,9.10
2015,04,03,14,55,9.20
2015,04,03,14,56,9.20
2015,04,03,14,57,9.30
2015,04,03,14,58,9.30
2015,04,03,14,59,9.40
2015,04,03,15,00,9.40
2015,04,03,15,01,9.40
2015,04,03,15,02,9.50
2015,04,03,15,03,9.50
2015,04,03,15,04,9.50
2015,04,03,15,05,9.60
2015,04,03,15,06,9.60
2015,04,03,15,07,9.60
2015,04,03,15,08,9.60
2015,04,03,15,09,9.60
2015,04,03,15,10,9.60
2015,04,03,15,11,9.50
2015,04,03,15,12,9.50
2015,04,03,15,13,9.40
2015,04,03,15,14,9.40
2015,04,03,15,15,9.40
2015,04,03,15,16,9.40
2015,04,03,15,17,9.40
2015,04,03,15,18,9.50
2015,04,03,15,19,9.40
2015,04,03,15,20,9.40
2015,04,03,15,21,9.40
2015,04,03,15,22,9.40
2015,04,03,15,23,9.30
2015,04,03,15,24,9.30
2015,04,03,15,25,9.30
2015,04,03,15,26,9.30
2015,04,03,15,27,9.40
2015,04,03,15,28,9.50
2015,04,03,15,29,9.50
2015,04,03,15,30,9.60
2015,04,03,15,31,9.60
2015,04,03,15,32,9.60
2015,04,03,15,33,9.70
2015,04,03,15,34,9.60
2015,04,03,15,35,9.60
2015,04,03,15,36,9.60
2015,04,03,15,37,9.60
2015,04,03,15,38,9.60
2015,04,03,15,39,9.60
2015,04,03,15,40,9.60
2015,04,03,15,41,9.70
2015,04,03,15,42,9.70
2015,04,03,15,43,9.70
2015,04,03,15,44,9.80
2015,04,03,15,45,9.80
2015,04,03,15,46,9.80
2015,04,03,15,47,9.80
2015,04,03,15,48,9.70
2015,04,03,15,49,9.70
2015,04,03,15,50,9.70
2015,04,03,15,51,9.80
2015,04,03,15,52,9.80
2015,04,03,15,53,9.80
2015,04,03,15,54,9.80
2015,04,03,15,55,9.80
2015,04,03,15,56,9.70
2015,04,03,15,57,9.80
2015,04,03,15,58,9.80
2015,04,03,15,59,9.70
2015,04,03,16,00,9.70
2015,04,03,16,01,9.60
2015,04,03,16,02,9.50
2015,04,03,16,03,9.50
2015,04,03,16,04,9.40
2015,04,03,16,05,9.40
2015,04,03,16,06,9.50
2015,04,03,16,07,9.40
2015,04,03,16,08,9.40
2015,04,03,16,09,9.40
2015,04,03,16,10,9.40
2015,04,03,16,11,9.50
2015,04,03,16,12,9.50
2015,04,03,16,13,9.60
2015,04,03,16,14,9.60
2015,04,03,16,15,9.60
2015,04,03,16,16,9.60
2015,04,03,16,17,9.60
2015,04,03,16,18,9.60
2015,04,03,16,19,9.50
2015,04,03,16,20,9.50
2015,04,03,16,21,9.50
2015,04,03,16,22,9.50
2015,04,03,16,23,9.40
2015,04,03,16,24,9.40
2015,04,03,16,25,9.40
2015,04,03,16,26,9.30
2015,04,03,16,27,9.30
2015,04,03,16,28,9.30
2015,04,03,16,29,9.30
2015,04,03,16,30,9.30
2015,04,03,16,31,9.30
2015,04,03,16,32,9.30
2015,04,03,16,33,9.30
2015,04,03,16,34,9.20
2015,04,03,16,35,9.20
2015,04,03,16,36,9.20
2015,04,03,16,37,9.20
2015,04,03,16,38,9.20
2015,04,03,16,39,9.20
2015,04,03,16,40,9.20
2015,04,03,16,41,9.20
2015,04,03,16,42,9.20
2015,04,03,16,43,9.10
2015,04,03,16,44,9.10
2015,04,03,16,45,9.10
2015,04,03,16,46,9.10
2015,04,03,16,47,9.00
2015,04,03,16,48,9.00
2015,04,03,16,49,9.00
2015,04,03,16,50,8.90
2015,04,03,16,51,8.90
2015,04,03,16,52,8.90
2015,04,03,16,53,8.90
2015,04,03,16,54,8.90
2015,04,03,16,55,8.90
2015,04,03,16,56,8.90
2015,04,03,16,57,8.90
2015,04,03,16,58,8.90
2015,04,03,16,59,8.80
2015,04,03,17,00,8.80
2015,04,03,17,01,8.70
2015,04,03,17,02,8.70
2015,04,03,17,03,8.60
2015,04,03,17,04,8.50
2015,04,03,17,05,8.40
2015,04,03,17,06,8.30
2015,04,03,17,07,8.20
2015,04,03,17,08,8.10
2015,04,03,17,09,8.00
2015,04,03,17,10,7.80
2015,04,03,17,11,7.60
2015,04,03,17,12,7.40
2015,04,03,17,13,7.20
2015,04,03,17,14,7.10
2015,04,03,17,15,7.00
2015,04,03,17,16,6.90
2015,04,03,17,17,6.80
2015,04,03,17,18,6.70
2015,04,03,17,19,6.70
2015,04,03,17,20,6.60
2015,04,03,17,21,6.50
2015,04,03,17,22,6.50
2015,04,03,17,23,6.40
2015,04,03,17,24,6.40
2015,04,03,17,25,6.40
2015,04,03,17,26,6.30
2015,04,03,17,27,6.30
2015,04,03,17,28,6.30
2015,04,03,17,29,6.30
2015,04,03,17,30,6.20
2015,04,03,17,31,6.20
2015,04,03,17,32,6.20
2015,04,03,17,33,6.20
2015,04,03,17,34,6.20
2015,04,03,17,35,6.20
2015,04,03,17,36,6.20
2015,04,03,17,37,6.20
2015,04,03,17,38,6.20
2015,04,03,17,39,6.20
2015,04,03,17,40,6.20
2015,04,03,17,41,6.20
2015,04,03,17,42,6.20
2015,04,03,17,43,6.20
2015,04,03,17,44,6.10
2015,04,03,17,45,6.10
2015,04,03,17,46,6.20
2015,04,03,17,47,6.20
2015,04,03,17,48,6.20
2015,04,03,17,49,6.20
2015,04,03,17,50,6.20
2015,04,03,17,51,6.20
2015,04,03,17,52,6.20
2015,04,03,17,53,6.30
2015,04,03,17,54,6.30
2015,04,03,17,55,6.30
2015,04,03,17,56,6.30
2015,04,03,17,57,6.30
2015,04,03,17,58,6.30
2015,04,03,17,59,6.30
2015,04,03,18,00,6.30
2015,04,03,18,01,6.30
2015,04,03,18,02,6.30
2015,04,03,18,03,6.30
2015,04,03,18,04,6.30
2015,04,03,18,05,6.30
2015,04,03,18,06,6.30